[[{"header":{"parameterUnit":"m.s-1","parameterCategory":1,"la1":30.2992,"la2":30.254,"lo1":-89.0895,"lo2":-89.0443,"dy":0.0025,"dx":0.0025,"nx":19,"ny":19,"refTime":"2026-03-16T09:00:00:Z","depth":0,"parameterNumber":2,"parameterNumberName":"U-component_of_WINDS"},"data":[0,0,0,0.8908,0.8907,0.8866,0.8866,0.8807,0.8806,0,0,0,0,0,0,0,0,0,0,0,0.8916,0.8915,0.8908,0.8907,0.8866,0.8866,0.8807,0.8806,0,0,0,0,0,0,0,0,0,0,0,0.8916,0.8916,0.8915,0.8906,0.8866,0.8866,0.8807,0.884,0,0,0,0,0,0,0,0,0,0,0.888,0.8885,0.8916,0.8915,0.8906,0.8866,0.8866,0.8842,0.8838,0.8822,0,0.8809,0,0.8807,0.8802,0.8802,0,0,0,0.8909,0.8888,0.8881,0.8915,0.8906,0.8867,0.8885,0.884,0.8835,0.8817,0.8808,0.8806,0.8806,0.8802,0.8801,0.8708,0.8707,0,0,0.8911,0.8906,0.8884,0.8878,0.8885,0.8886,0.8884,0.8837,0.8826,0.8808,0.8805,0.8805,0.8801,0.8801,0.8708,0.8708,0,0,0,0.8916,0.8908,0.8902,0.888,0.8873,0.8885,0.8882,0.8828,0.8827,0.8804,0.8804,0.8801,0.88,0.8709,0.8708,0.8677,0,0,0,0.8917,0.8911,0.8903,0.8899,0.8874,0.885,0.8874,0.883,0.8825,0.8804,0.8801,0.8799,0.8709,0.8708,0.8679,0.8662,0,0,0,0.892,0.8911,0.8904,0.8899,0.8882,0.8851,0.8847,0.8829,0.8825,0.8802,0.8799,0.871,0.8709,0.8681,0.8665,0.8635,0,0,0,0.892,0.8876,0.8904,0.8855,0.8882,0.8834,0.8848,0.8811,0.8788,0.88,0.8709,0.8708,0.8681,0.8667,0.8637,0.8608,0.8596,0,0,0.8862,0.8869,0.8841,0.8864,0.8809,0.884,0.878,0.8762,0.8764,0.8726,0.8724,0.8678,0.8665,0.8636,0.8534,0.8524,0,0,0,0.882,0.88,0.8786,0.8765,0.8752,0.8739,0.8731,0.8725,0.8694,0.8744,0.8661,0.8653,0.8636,0.8622,0.8614,0.8598,0.8702,0.8702,0.8702,0.8729,0.8735,0.8688,0.8689,0.8669,0.8663,0.8646,0.8636,0.8647,0.8627,0.8615,0.8553,0.8536,0.853,0.8514,0.8602,0.8602,0.8602,0.8602,0.8642,0.8613,0.8631,0.8592,0.8598,0.8565,0.8558,0.8567,0.8536,0.8562,0.8547,0.8573,0.852,0.8506,0.8599,0.86,0.86,0.86,0.86,0.8581,0.8568,0.8563,0.8534,0.8511,0.8514,0.8484,0.8491,0.8497,0.8482,0.847,0.847,0.847,0.8477,0.8476,0.8476,0.8476,0.8476,0.8476,0.8519,0.8514,0.8489,0.8473,0.846,0.8445,0.844,0.8428,0.8416,0.8423,0.8423,0.8435,0.8515,0.8533,0.8472,0.8473,0.8473,0.8474,0.8474,0.8424,0.8448,0.8408,0.8396,0.8378,0.8354,0.8365,0.834,0.8331,0.8315,0.8332,0.8391,0.8397,0.8404,0.8419,0.8332,0.8332,0.8332,0.8332,0.8371,0.8377,0.8338,0.8318,0.83,0.8307,0.826,0.8257,0.8256,0.8251,0.8265,0.8287,0.8293,0.8296,0.8305,0.8319,0.8209,0.8209,0.8209,0.8313,0.8317,0.8276,0.8278,0.8265,0.8254,0.821,0.8186,0.819,0.8204,0.8246,0.8251,0.8287,0.8298,0.8309,0.8323,0.8349,0,0]},{"header":{"parameterUnit":"m.s-1","parameterCategory":1,"la1":30.2992,"la2":30.254,"lo1":-89.0895,"lo2":-89.0443,"dy":0.0025,"dx":0.0025,"nx":19,"ny":19,"refTime":"2026-03-16T09:00:00:Z","depth":0,"parameterNumber":3,"parameterNumberName":"V-component_of_WINDS"},"data":[0,0,0,-6.8087,-6.8092,-6.8345,-6.8345,-6.868,-6.8684,0,0,0,0,0,0,0,0,0,0,0,-6.8024,-6.8027,-6.8086,-6.8093,-6.8344,-6.8345,-6.868,-6.8684,0,0,0,0,0,0,0,0,0,0,0,-6.8023,-6.8026,-6.803,-6.8094,-6.8344,-6.8346,-6.8679,-6.8483,0,0,0,0,0,0,0,0,0,0,-6.8236,-6.8192,-6.8025,-6.803,-6.8095,-6.8344,-6.8346,-6.8474,-6.8496,-6.8573,0,-6.8649,0,-6.8672,-6.8707,-6.8708,0,0,0,-6.8083,-6.8174,-6.8231,-6.803,-6.8098,-6.8344,-6.8228,-6.8486,-6.8511,-6.8602,-6.8654,-6.8666,-6.8678,-6.871,-6.8711,-6.92,-6.9203,0,0,-6.8069,-6.8075,-6.8214,-6.8248,-6.8214,-6.822,-6.8236,-6.8501,-6.8556,-6.8655,-6.8673,-6.8683,-6.8712,-6.8715,-6.9198,-6.9201,0,0,0,-6.8036,-6.8066,-6.8116,-6.8234,-6.8279,-6.8228,-6.8246,-6.8544,-6.856,-6.8677,-6.8687,-6.8714,-6.8718,-6.9195,-6.9199,-6.9343,0,0,0,-6.8027,-6.8047,-6.8111,-6.8117,-6.8275,-6.8416,-6.8284,-6.8541,-6.8571,-6.8685,-6.8714,-6.8722,-6.9192,-6.9197,-6.9332,-6.9409,0,0,0,-6.8003,-6.8044,-6.8085,-6.8117,-6.8226,-6.8411,-6.8442,-6.8548,-6.8578,-6.8709,-6.8723,-6.919,-6.9196,-6.9323,-6.9394,-6.9539,0,0,0,-6.798,-6.8208,-6.8087,-6.8346,-6.8224,-6.8499,-6.844,-6.8644,-6.8773,-6.8716,-6.9192,-6.9199,-6.932,-6.9384,-6.9529,-6.9663,-6.9719,0,0,-6.8272,-6.8244,-6.8395,-6.8294,-6.8593,-6.846,-6.8779,-6.8889,-6.8894,-6.9097,-6.9108,-6.9336,-6.9393,-6.9537,-7.0035,-7.008,0,0,0,-6.849,-6.8599,-6.8676,-6.8802,-6.8893,-6.8976,-6.9038,-6.9078,-6.9251,-6.9001,-6.9427,-6.9461,-6.9545,-6.9609,-6.9647,-6.9718,-6.9228,-6.9228,-6.9227,-6.8912,-6.8908,-6.9157,-6.9183,-6.9304,-6.9365,-6.9461,-6.9525,-6.9484,-6.9584,-6.9645,-6.9948,-7.0022,-7.0051,-7.0125,-6.9715,-6.9715,-6.9716,-6.9716,-6.9339,-6.9492,-6.9432,-6.9653,-6.9645,-6.9828,-6.9894,-6.9858,-7.0025,-6.9902,-6.9976,-6.9842,-7.0101,-7.0165,-6.9727,-6.9725,-6.9724,-6.9723,-6.9722,-6.9615,-6.9687,-6.9734,-6.9913,-7.005,-7.0065,-7.0229,-7.0215,-7.0203,-7.0276,-7.0337,-7.0334,-7.0329,-7.0306,-7.0307,-7.0308,-7.0309,-7.031,-7.0311,-6.9883,-6.9931,-7.0073,-7.0188,-7.0265,-7.0364,-7.0425,-7.0499,-7.0577,-7.0554,-7.0554,-7.0501,-7.0128,-7.0034,-7.0327,-7.0324,-7.0322,-7.032,-7.0319,-7.0317,-7.0216,-7.0436,-7.0513,-7.0645,-7.0781,-7.0761,-7.0912,-7.0971,-7.1051,-7.0982,-7.0709,-7.0678,-7.0648,-7.057,-7.0984,-7.0984,-7.0984,-7.0984,-7.055,-7.0533,-7.0753,-7.0877,-7.0997,-7.1,-7.1243,-7.1291,-7.1325,-7.136,-7.1297,-7.1193,-7.1162,-7.1149,-7.1108,-7.1035,-7.1558,-7.1559,-7.156,-7.0815,-7.081,-7.1022,-7.1056,-7.1157,-7.1244,-7.1471,-7.1612,-7.1628,-7.1582,-7.1386,-7.1362,-7.1193,-7.1138,-7.1088,-7.1024,-7.089,0,0]}]]